Rbgn^[z[y[W
メイン
   新天体発見情報
     Comet P/2023 B1 (PANSTARRS)
投稿するにはまず登録を

フラット表示 前のトピック | 次のトピック
投稿者 スレッド
佐藤裕久
投稿日時: 2023-1-31 21:33
モデレータ
登録日: 2005-6-12
居住地: 日本
投稿: 2701
オンライン
Comet P/2023 B1 (PANSTARRS)

R. Weryk (西オンタリオ大学,物理および天文学科)の通報によると、1月21.5日UT、
HaleakalaにあるPan-STARRS2の1.8-m Ritchey-Chretien 反射望遠鏡で得た画像から
彗星を発見した。4枚の45秒w-バンドサーベイ画像ては、1".8のシーイングで、2".4
(半値全幅:FWHM)の非常に集光した頭部が見えた。
Werykは、1月22.57日、さらにR. Wainscoatの、3.6-m Canada-France-Hawaii天文台
による3枚の40秒gri-バンドフォローアップ観測では、0".6のシーイングで、1".0 
(FWHM)の非常に集光したコマが見えたが尾はなかったと加えた。
小惑星センターのPCCP webpageに公表後、佐藤英貴氏(東京都文京区,1月22.36日UT, 
60-秒露出10枚のスタック, 0.51-m f/6.8 アストログラフ, Rio Hurtado, チリ, 
遠隔操作:強く集光した14" のコマが見えるが尾はない。7".2の円形範囲で測定した
光度は16.5等であった)らCCD観測者によって彗星状と観測された。

彗星機能の報告は次のとおり、

OC   Date        Reporter           Coma    Tail    PA          Exposures
J95  2023-01-21  P. Birtwhistle    13"                          156x10s
T14  2023-01-22  R. Weryk           0".4                          3x40s
W76  2023-01-22  H. Sato           14"                           10x60s
204  2023-01-23  L. Buzzi          15"                           10x30s
G40  2023-01-24  B. Lutkenhoner    10"                           15x50s
U69  2023-01-24  F. D. Romanov     15"                            3x180s
V39  2023-01-25  T. Lister         11"

発見位置は次のとおり、

     2022 UT             R.A. (2000) Decl.       Mag.
     Nov. 24.23624   18 37 12.05   +76 45 16.8   19.1
          24.24168   18 37 12.87   +76 45 15.8   18.9
          24.24530   18 37 13.13   +76 45 14.3   18.9
          24.26172   18 37 14.72   +76 45 13.2   18.7

MPCの楕円軌道要素、位置推算表は次のとおり、

Orbital elements:
    P/2023 B1 (PANSTARRS)                                                       
Epoch 2023 Feb. 25.0 TT = JDT 2460000.5                                         
T 2023 June 13.57208 TT                                 Rudenko                 
q   6.1379560            (2000.0)            P               Q                  
n   0.05276277     Peri.   84.49593     -0.92532882     -0.28773263             
a   7.0401892      Node    78.60033     +0.16121094     -0.88801376             
e   0.1281547      Incl.   14.59019     +0.34318742     -0.35866628             
P  18.7                                                                         
From 90 observations 2023 Jan. 13-25, mean residual 0".3.                       
                                                                                
Ephemeris:
Date    TT    R. A. (2000) Decl.     Delta      r    Elong.  Phase   m1
2022 12 26    11 08 36.6 +21 53 36   5.6947  6.1524   113.4     8.4  17.2
...
2023 01 10    11 08 31.9 +22 36 22   5.4937  6.1499   128.1     7.2  17.1
...
2023 01 18    11 07 28.2 +23 03 22   5.4026  6.1487   136.0     6.4  17.1
...
2023 01 24    11 06 13.7 +23 24 53   5.3434  6.1479   141.9     5.7  17.0
2023 01 25    11 05 59.1 +23 28 32   5.3344  6.1477   142.8     5.6  17.0
2023 01 26    11 05 44.0 +23 32 11   5.3256  6.1476   143.8     5.4  17.0
...
2023 02 01    11 04 01.7 +23 54 18   5.2784  6.1468   149.4     4.7  17.0
...
2023 02 09    11 01 17.8 +24 23 29   5.2304  6.1458   156.2     3.7  17.0
...
2023 02 24    10 55 08.8 +25 13 20   5.1905  6.1440   163.1     2.7  17.0

(MPEC 2023-B118、CBET 5209)

フラット表示 前のトピック | 次のトピック

題名 投稿者 日時
 » Comet P/2023 B1 (PANSTARRS) 佐藤裕久 2023-1-31 21:33

投稿するにはまず登録を
 
© 1999 Tsutomu Seki.